Regional Weather Roundup
Issued by NWS

Home | Current Version | Previous Version | Text Only | Print | Product List | Glossary On
Versions: 1 2 3 4 5 6 7 8 9 10 11 12 13 14 15 16 17 18 19 20 21 22 23 24 25 26
000
ASUS46 KPQR 131810
RWROR

OREGON REGIONAL WEATHER ROUNDUP
NATIONAL WEATHER SERVICE PORTLAND OR
1000 AM PST WED DEC 13 2017

NOTE: "FAIR" INDICATES FEW OR NO CLOUDS BELOW 12,000 FEET WITH
NO SIGNIFICANT WEATHER AND/OR OBSTRUCTIONS TO VISIBILITY.

ORZ001>013-131900-
NORTHWEST OREGON


CITY           SKY/WX    TMP DP  RH WIND       PRES   REMARKS
ASTORIA        SUNNY     43  35  73 E6        30.36S
6HR MIN TEMP:  34; 6HR MAX TEMP:  43; 6HR PCP: TRACE;

NEWPORT        SUNNY     46  32  57 E14G21    30.33S
PORTLAND       MOSUNNY   38  30  73 W3        30.42S
6HR MIN TEMP:  29; 6HR MAX TEMP:  38;

VANCOUVER WA   SUNNY     38  31  76 CALM      30.42S
6HR MIN TEMP:  26; 6HR MAX TEMP:  38;

SCAPPOOSE      SUNNY     34  31  88 CALM      30.42S
6HR MIN TEMP:  25; 6HR MAX TEMP:  34;

HILLSBORO      MOSUNNY   34  30  85 CALM      30.40S
6HR MIN TEMP:  24; 6HR MAX TEMP:  34;

AURORA         MOSUNNY   40  29  64 N9        30.40R WCI  34
6HR MIN TEMP:  30; 6HR MAX TEMP:  40;

MCMINNVILLE    SUNNY     38  30  73 N5        30.40S WCI  34
6HR MIN TEMP:  27; 6HR MAX TEMP:  38;

SALEM          SUNNY     38  28  67 N8        30.38R WCI  32
6HR MIN TEMP:  27; 6HR MAX TEMP:  38;

CORVALLIS      SUNNY     36  31  82 CALM      30.39S
EUGENE         MOSUNNY   31  30  96 CALM      30.38S
6HR MIN TEMP:  23; 6HR MAX TEMP:  31;

$$

ORZ021-028-131900-
SOUTHWEST OREGON


CITY           SKY/WX    TMP DP  RH WIND       PRES   REMARKS
NORTH BEND     SUNNY     45  40  82 SE6       30.27F
6HR MIN TEMP:  35; 6HR MAX TEMP:  45;

BROOKINGS      SUNNY     52  38  58 CALM      30.22R
ROSEBURG       CLOUDY    32  31  96 N7        30.36R FOG     WCI  26
6HR MIN TEMP:  31; 6HR MAX TEMP:  32;

GRANTS PASS    NOT AVBL
MEDFORD        MOSUNNY   29  28  96 CALM      30.35S FOG
6HR MIN TEMP:  23; 6HR MAX TEMP:  29;

$$

ORZ014>016-041-131900-
COLUMBIA GORGE


CITY           SKY/WX    TMP DP  RH WIND       PRES   REMARKS
TROUTDALE      SUNNY     39  26  59 E22G30    30.41S WCI  29
6HR MIN TEMP:  36; 6HR MAX TEMP:  39;

HOOD RIVER     CLOUDY    32  27  80 E5        30.60R WCI  27
THE DALLES     CLOUDY    35  27  72 CALM      30.62R
6HR MIN TEMP:  33; 6HR MAX TEMP:  35;

$$

ORZ029>031-041-044-049-050-061>064-502-503-505>511-131900-
EASTERN OREGON


CITY           SKY/WX    TMP DP  RH WIND       PRES   REMARKS
MADRAS         CLOUDY   N/A N/A N/A CALM      30.48S
REDMOND        FOG       21  20  96 N3        30.41S VSB 3/4
6HR MIN TEMP:  18; 6HR MAX TEMP:  21; 6HR PCP: TRACE;

BEND           MOSUNNY   23  19  86 CALM      30.38F
PRINEVILLE     CLOUDY    21  19  93 NW6       30.41R FOG     WCI  14
KLAMATH FALLS  MOSUNNY   29  25  85 NW5       30.35S WCI  24
6HR MIN TEMP:  15; 6HR MAX TEMP:  29;

LAKEVIEW       SUNNY     30  20  66 CALM      30.34S
HERMISTON      CLOUDY    31  29  92 SW3       30.60R
6HR MIN TEMP:  30; 6HR MAX TEMP:  31;

PENDLETON      CLOUDY    29  25  85 N6        30.54R WCI  23
6HR MIN TEMP:  27; 6HR MAX TEMP:  29;

JOHN DAY       SUNNY     33  23  65 W3        30.36R
MEACHAM        MOSUNNY   24  21  88 CALM      30.39R
6HR MIN TEMP:  22; 6HR MAX TEMP:  27; 6HR PCP:  0.01;

LA GRANDE      PTSUNNY   29  23  78 N6        30.46R WCI  23
6HR MIN TEMP:  25; 6HR MAX TEMP:  29; 6HR PCP: TRACE;

BAKER CITY     MOSUNNY   27  19  72 CALM      30.41S
6HR MIN TEMP:  23; 6HR MAX TEMP:  28; 6HR PCP: TRACE;

BURNS          PTSUNNY   22  17  81 E3        30.37F
6HR MIN TEMP:  17; 6HR MAX TEMP:  23;

ROME             N/A     21  17  84 CALM      30.34F
6HR MIN TEMP:   7; 6HR MAX TEMP:  21;

ONTARIO        CLOUDY    27  22  81 SW3       30.50F
6HR MIN TEMP:  25; 6HR MAX TEMP:  27; 6HR PCP: TRACE;

$$




USA.gov is the U.S. government's official web portal to all federal, state and local government web resources and services.